Regional Weather Roundup
Issued by NWS

Home | Current Version | Previous Version | Text Only | Print | Product List | Glossary Off
Versions: 1 2 3 4 5 6 7 8 9 10 11 12 13 14 15 16 17 18 19 20 21 22 23 24 25 26 27 28 29 30 31 32 33 34 35 36 37 38 39 40 41 42 43 44 45 46 47 48 49 50

877
ASUS43 KLOT 250703
RWRIL

ILLINOIS REGIONAL WEATHER ROUNDUP
NATIONAL WEATHER SERVICE CHICAGO/ROMEOVILLE IL
200 AM CDT WED APR 25 2018

NOTE: "FAIR" INDICATES FEW OR NO CLOUDS BELOW 12,000 FEET WITH NO
SIGNIFICANT WEATHER AND/OR OBSTRUCTIONS TO VISIBILITY.

* THESE STATIONS ARE NOT UNDER NWS QUALITY CONTROL. THEY ALSO MAY NOT
  REPORT WEATHER SUCH AS PRECIPITATION OR FOG.

ILZ001-002-007-009-015-016-024-250800-
NORTHWEST ILLINOIS

CITY           SKY/WX    TMP DP  RH WIND       PRES   REMARKS
MOLINE         FAIR      61  40  45 N10       30.00S
STERLING*      FAIR      52  47  83 MISG      30.05R
SAVANNA*       FAIR      56  37  47 NE12      30.06R
$$

ILZ003-004-008-010-011-017-018-250800-
NORTH CENTRAL ILLINOIS

CITY           SKY/WX    TMP DP  RH WIND       PRES   REMARKS
ROCKFORD       CLOUDY    48  31  51 NE16      30.10R
FREEPORT*      CLOUDY    48  35  60 NE17G25   30.10R
ROCHELLE*      FAIR      47  36  65 NE16      30.06R
DE KALB*       MOCLDY    45  35  67 N17G25    30.06R
$$

ILZ005-006-012>014-019>023-250800-
NORTHEAST ILLINOIS

CITY           SKY/WX    TMP DP  RH WIND       PRES   REMARKS
CHICAGO-OHARE  CLOUDY    48  32  53 N22       30.04S
CHICAGO-MIDWAY CLOUDY    47  36  65 N18       30.04R
AURORA         FAIR      47  37  68 N18       30.04R
LANSING*       CLOUDY    44  40  85 N10       30.02R
JOLIET*        FAIR      50  47  87 N10       30.02R
WAUKEGAN       CLOUDY    44  30  57 N16G36    30.04F
DUPAGE AIRPORT FAIR      45  36  70 N17G25    30.04R
KANKAKEE*      FAIR      47  45  93 N12       30.01S
WHEELING       CLOUDY    48  31  51 N20G25    30.07R
MORRIS*        FAIR      48  46  90 N3        30.02R
ROMEOVILLE*    FAIR      48  43  85 NE14      30.03R
NORTHERLY ISL    N/A     44  35  70 N22         N/A
$$

LMZ740>746-250800-
SOUTHERN LAKE MICHIGAN

STATION/POSITION SKY/WX   TEMP    WIND        PRES    VSBY  WAVE
                          AIR SEA DIR/SP/G                  HT/PER
                          (F)     (DEG/KT/KT) (MB)    (MI)  (FT/S)
HARRISON CRIB              42     340/ 25/ 30   N/A
BURNHAM HARBOR             44     340/ 20/ 23   N/A
CALUMET HARBOR             42     320/ 18/ 24 1016.5
BURNS HARBOR               40     330/  7/  8 1016.9S
MICHIGAN CITY              41     350/ 10/ 12   N/A
ST. JOSEPH                 42 44  330/ 12/ 16 1016.5R         1/ 3
$$

ILZ025>027-034>036-040-047-049-050-058-095>099-250800-
WEST-CENTRAL ILLINOIS

CITY           SKY/WX    TMP DP  RH WIND       PRES   REMARKS
QUINCY         CLEAR     54  40  59 NW10      30.01F
MACOMB*        PTCLDY    54  40  59 NW9       30.01F
JACKSONVILLE*  MOCLDY    50  32  50 NW6       29.98F
PITTSFIELD*    CLEAR     56  37  48 NW6       30.00F
$$

ILZ028>032-037-038-041>044-048-051>054-059>061-250800-
CENTRAL ILLINOIS

CITY           SKY/WX    TMP DP  RH WIND       PRES   REMARKS
PONTIAC        FAIR      46  46  98 NE6       30.02R FOG
BLOOMINGTON    FAIR      49  46  90 NE9       29.99F
DECATUR        FAIR      48  47  96 CALM      29.97F FOG
PEORIA         FAIR      56  47  71 CALM      29.98F
LACON*         FAIR      51  47  86 E6        30.00R
LINCOLN*       FAIR      51  50  98 CALM      29.97F FOG
SPRINGFIELD    FAIR      53  49  86 CALM      29.98F
TAYLORVILLE    FAIR      50  49  99 SE3       29.97F
$$

ILZ033-039-045-046-055>057-062-063-250800-
EAST-CENTRAL ILLINOIS

CITY           SKY/WX    TMP DP  RH WIND       PRES   REMARKS
CHAMPAIGN      FAIR      47  47 100 N7        29.97F FOG
DANVILLE*      FAIR      46  46 100 NW7       29.95F FOG
RANTOUL*       FAIR      50  49  95 N5        29.98F
MATTOON        FOG       48  48 100 W5        29.96F VSB 1/2
PARIS*         FAIR      46  46 100 N6        29.97F FOG
$$

ILZ079-100>102-250800-
SOUTHWEST ILLINOIS

CITY           SKY/WX    TMP DP  RH WIND       PRES   REMARKS
CAHOKIA*       CLEAR     44  44 100 CALM      29.97F FOG
SPARTA*        CLEAR     48  48 100 CALM      29.99F
$$

ILZ064>066-069>071-074>076-080>082-084>086-088>090-092>094-250800-
SOUTH-CENTRAL ILLINOIS

CITY           SKY/WX    TMP DP  RH WIND       PRES   REMARKS
CARBONDALE     FAIR      48  47  96 CALM      29.98F FOG
CAIRO*         FAIR      51  51 100 CALM      29.99F
EFFINGHAM*     FAIR      47  47 100 CALM      29.99F FOG
MARION         FOG       49  48  98 CALM      29.99F VSB 3/4
MT. VERNON       N/A     45  44  97 CALM      29.98F FOG
CENTRALIA*     FOG       47  47 100 CALM      29.97F VSB 1
SALEM*         FAIR      52  51  95 CALM      29.98F FOG
METROPOLIS*    FAIR      51  51  98 CALM      29.98F FOG
$$

ILZ067-068-072-073-078-083-087-091-250800-
SOUTHEAST ILLINOIS

CITY           SKY/WX    TMP DP  RH WIND       PRES   REMARKS
LAWRENCEVILLE  FOG       50  50 100 MISG      29.96S VSB 1/2
FLORA*         FAIR      52  51  93 NW6       29.98F FOG
FAIRFIELD*     FAIR      53  51  96 CALM      29.96F
HARRISBURG*    FAIR      52  52  99 NW6       29.98F
ROBINSON*      FAIR      45  45 100 NW3       29.97F FOG
CARMI*         FAIR      50  50 100 W9        29.96F FOG
$$

ABBREVIATIONS USED IN REMARKS
   TC - TEMPERATURE IN CELSIUS
  WCI - WIND CHILL INDEX
   HX - HEAT INDEX
  VSB - VISIBILITY
$$





USA.gov is the U.S. government's official web portal to all federal, state and local government web resources and services.